This is the latest recevied weather packets stored in our database for station/object VE4GLS. If no packets are shown the sender has not sent any weather packets the latest 10 day(s).
| Time | Temp. | Humidity | Pressure | Rain* | Wind** | Luminosity | Snow |
|---|---|---|---|---|---|---|---|
| 1777767455 | 18.33° C | 42% | 1004.3 hPa | 0 mm | - | - | - |
| 1777767193 | 18.33° C | 42% | 1004.3 hPa | 0 mm | - | - | - |
| 1777766593 | 18.89° C | 41% | 1004.3 hPa | 0 mm | - | - | - |
| 1777766555 | 18.89° C | 41% | 1004.3 hPa | 0 mm | - | - | - |
| 1777765993 | 18.89° C | 41% | 1004.3 hPa | 0 mm | - | - | - |
| 1777765655 | 18.89° C | 42% | 1004.2 hPa | 0 mm | - | - | - |
| 1777765395 | 18.89° C | 42% | 1004.1 hPa | 0 mm | - | - | - |
| 1777764795 | 19.44° C | 42% | 1004.1 hPa | 0 mm | - | - | - |
| 1777764755 | 20° C | 42% | 1004.1 hPa | 0 mm | - | - | - |
| 1777764194 | 20° C | 41% | 1004 hPa | 0 mm | - | - | - |
| 1777763854 | 20.56° C | 40% | 1004 hPa | 0 mm | - | - | - |
| 1777763594 | 20.56° C | 39% | 1003.8 hPa | 0 mm | - | - | - |
| 1777762993 | 20.56° C | 39% | 1003.8 hPa | 0 mm | - | - | - |
| 1777762955 | 20.56° C | 39% | 1003.8 hPa | 0 mm | - | - | - |
| 1777762393 | 20° C | 40% | 1003.7 hPa | 0 mm | - | - | - |
| 1777762055 | 18.89° C | 42% | 1003.8 hPa | 0 mm | - | - | - |
| 1777761794 | 18.89° C | 42% | 1003.8 hPa | 0 mm | - | - | - |
| 1777761194 | 19.44° C | 41% | 1003.9 hPa | 0 mm | - | - | - |
| 1777761154 | 19.44° C | 41% | 1003.9 hPa | 0 mm | - | - | - |
| 1777760594 | 19.44° C | 40% | 1003.9 hPa | 0 mm | - | - | - |
| 1777760256 | 20° C | 39% | 1003.9 hPa | 0 mm | - | - | - |
| 1777759994 | 20.56° C | 39% | 1003.9 hPa | 0 mm | - | - | - |
| 1777759395 | 20° C | 40% | 1003.9 hPa | 0 mm | - | - | - |
| 1777759354 | 20° C | 40% | 1003.9 hPa | 0 mm | - | - | - |
| 1777758793 | 20° C | 39% | 1004 hPa | 0 mm | - | - | - |
* Rain latest hour (hover to see other rain measurements)
** Current wind speed in m/s (hover to see current wind gust speed)